Find Tenkoh-2

NORAD ID: 68261 Int'l Des: 2025-241 Owner: NIHON Country: J operational
LEOCIRCULAR

Live Position

Loading 3D Globe...

About Tenkoh-2

Description loading...

Upcoming Passes

Passes for default location (London). Set your location on the main map for personalized predictions.

Altitude History

Loading altitude history...

Two-Line Element Set

1 68261U 25241B 26124.13505715 .00006504 00000-0 28376-3 0 9993
2 68261 51.6494 169.2136 0005958 3.8543 356.2479 15.23335867 8199
Epoch: May 4, 2026 • Age: 11 hours

Current Status

Altitude 513.8 km
Velocity 7.61 km/s
Sub-Earth Point -51.76°S, 9.66°E
Launch Date Oct 26, 2025
Age 0.5 years
Type other

Technical Details

Classification Payload
Mass 10.00 kg
Dry Mass 10.00 kg
Total Mass 10.00 kg
Length 0.30 m
Diameter 0.20 m
Span 0.30 m
Shape Box
Manufacturer NIHON
Bus Type Cubesat 6U
Phase Status In Orbit
Owner/State NIHON/J

Most Searched